Date String (YYYY-MM-DD hh:mm:ss) UTC,Instrument flags,absolute air pressure of the measurement (hPa),sample flow rate (lpm),inlet stack bypass flow (lpm),air temperature of the measurement (°C),ambient temperature measured by the external sensor (°C),aerosol sample conditioner tube jacket temperature (°C),OPC LED temperature (°C),internal box temperature (°C),relative humidity of the measurement (%),span deviation,mass concentration of particles derived from Lorenz-Mie calculation of OPC scattering (μg/m³),mass concentration of particles derived from Lorenz-Mie calculation of OPC scattering (μg/m³),mass concentration of particles derived from Lorenz-Mie calculation of OPC scattering (μg/m³)
DateTimeUTC,F1_M11,P_M11,Q1_M11,Q2_M11,T1_M11,T2_M11,T3_M11,T4_M11,T5_M11,U1_M11,ZSPAN_M11,X0_M11,X2_M11,X1_M11
2023-09-29 06:00:00,SystemResetWarning,0825.8,5.01,000.00,028.2,025.3,000.0,036.8,029.8,18.1,0000.0,0017.67,0006.28,0004.64
2023-09-29 06:01:00,SystemResetWarning,0825.9,5.00,000.00,028.1,025.6,000.0,036.7,029.8,18.2,0000.0,0016.85,0006.35,0004.64
2023-09-29 06:02:00,SystemResetWarning,0825.9,5.00,000.00,028.1,025.9,000.0,036.7,029.9,18.6,0000.0,0017.34,0006.37,0004.64
2023-09-29 06:03:00,SystemResetWarning,0825.9,5.00,000.00,028.2,026.2,000.0,036.7,029.9,18.1,0000.0,0017.27,0006.33,0004.63
2023-09-29 06:04:00,SystemResetWarning,0825.9,4.99,000.00,028.2,026.4,000.0,036.7,029.9,17.6,0000.0,0017.89,0006.34,0004.61
2023-09-29 06:05:00,SystemResetWarning,0825.9,4.99,000.00,028.2,026.6,000.0,036.7,030.0,17.0,0000.0,0018.49,0006.37,0004.60
2023-09-29 06:06:00,SystemResetWarning,0825.9,5.00,000.00,028.2,026.7,000.0,036.7,030.0,16.9,0000.0,0018.17,0006.32,0004.58
2023-09-29 06:07:00,SystemResetWarning,0825.9,5.00,000.00,028.2,026.8,000.0,036.8,030.0,16.7,0000.0,0017.79,0006.31,0004.57
2023-09-29 06:08:00,SystemResetWarning,0825.9,5.01,000.00,028.3,026.9,000.0,036.8,030.1,16.7,0000.0,0018.15,0006.34,0004.57
2023-09-29 06:09:00,SystemResetWarning,0825.9,5.01,000.00,028.3,027.0,000.0,036.8,030.1,17.4,0000.0,0018.13,0006.38,0004.57
2023-09-29 06:10:00,SystemResetWarning,0825.9,5.00,000.00,028.3,027.1,000.0,036.8,030.2,18.2,0000.0,0017.93,0006.38,0004.57
2023-09-29 06:11:00,SystemResetWarning,0825.9,5.00,000.00,028.4,027.2,000.0,036.8,030.2,17.6,0000.0,0017.70,0006.38,0004.57
2023-09-29 06:12:00,SystemResetWarning,0825.9,5.00,000.00,028.4,027.2,000.0,036.8,030.2,18.0,0000.0,0017.90,0006.36,0004.57
2023-09-29 06:13:00,SystemResetWarning,0825.9,5.00,000.00,028.4,027.3,000.0,036.8,030.3,17.8,0000.0,0017.98,0006.30,0004.56
2023-09-29 06:14:00,SystemResetWarning,0825.9,5.00,000.00,028.5,027.4,000.0,036.8,030.3,18.0,0000.0,0018.61,0006.30,0004.55
2023-09-29 06:15:00,SystemResetWarning,0825.9,5.00,000.00,028.5,027.4,000.0,036.9,030.3,18.4,0000.0,0018.87,0006.29,0004.56
2023-09-29 06:16:00,SystemResetWarning,0825.9,4.99,000.00,028.5,027.5,000.0,036.9,030.3,18.4,0000.0,0019.79,0006.25,0004.55
2023-09-29 06:17:00,SystemResetWarning,0825.9,5.00,000.00,028.6,027.3,000.0,036.9,030.4,18.1,0000.0,0020.37,0006.27,0004.56
2023-09-29 06:18:00,SystemResetWarning,0825.9,4.99,000.00,028.5,025.6,000.0,036.9,030.2,18.5,0000.0,0020.51,0006.29,0004.57
2023-09-29 06:19:00,SystemResetWarning,0825.9,5.01,000.00,028.5,024.5,000.0,036.8,030.1,19.1,0000.0,0020.34,0006.26,0004.57
2023-09-29 06:20:00,SystemResetWarning,0825.9,5.01,000.00,028.4,024.5,000.0,036.8,029.9,18.8,0000.0,0020.40,0006.25,0004.55
2023-09-29 06:21:00,SystemResetWarning,0825.9,4.99,000.00,028.3,024.8,000.0,036.8,029.8,17.8,0000.0,0020.99,0006.34,0004.54
2023-09-29 06:22:00,SystemResetWarning,0825.9,5.00,000.00,028.2,025.2,000.0,036.8,029.8,16.8,0000.0,0022.38,0006.33,0004.55
2023-09-29 06:23:00,SystemResetWarning,0825.8,5.01,000.00,028.2,025.5,000.0,036.8,029.8,17.1,0000.0,0022.31,0006.29,0004.55
2023-09-29 06:24:00,SystemResetWarning,0825.8,5.00,000.00,028.2,025.9,000.0,036.8,029.9,18.0,0000.0,0021.50,0006.28,0004.55
2023-09-29 06:25:00,SystemResetWarning,0825.8,5.00,000.00,028.2,026.1,000.0,036.8,029.9,18.4,0000.0,0020.37,0006.22,0004.55
2023-09-29 06:26:00,SystemResetWarning,0825.8,4.99,000.00,028.2,026.4,000.0,036.8,030.0,18.7,0000.0,0019.99,0006.19,0004.54
2023-09-29 06:27:00,SystemResetWarning,0825.8,4.99,000.00,028.2,026.6,000.0,036.8,030.0,18.7,0000.0,0018.99,0006.22,0004.55
2023-09-29 06:28:00,SystemResetWarning,0825.8,4.99,000.00,028.3,026.7,000.0,036.8,030.1,17.4,0000.0,0018.92,0006.19,0004.55
2023-09-29 06:29:00,SystemResetWarning,0825.8,5.00,000.00,028.3,026.9,000.0,036.8,030.1,16.8,0000.0,0018.27,0006.13,0004.54
2023-09-29 06:30:00,SystemResetWarning,0825.8,5.00,000.00,028.3,027.0,000.0,036.8,030.1,17.4,0000.0,0018.08,0006.11,0004.53
2023-09-29 06:31:00,SystemResetWarning,0825.8,5.01,000.00,028.3,027.1,000.0,036.8,030.2,17.8,0000.0,0017.77,0006.14,0004.54
2023-09-29 06:32:00,SystemResetWarning,0825.8,5.00,000.00,028.4,027.2,000.0,036.8,030.2,18.0,0000.0,0017.09,0006.05,0004.55
2023-09-29 06:33:00,SystemResetWarning,0825.8,5.00,000.00,028.4,027.3,000.0,036.8,030.2,17.6,0000.0,0015.74,0005.96,0004.56
2023-09-29 06:34:00,SystemResetWarning,0825.8,5.00,000.00,028.4,027.3,000.0,036.9,030.3,17.9,0000.0,0015.28,0005.95,0004.56
2023-09-29 06:35:00,SystemResetWarning,0825.9,5.00,000.00,028.5,027.4,000.0,036.9,030.3,18.1,0000.0,0017.05,0005.96,0004.57
2023-09-29 06:36:00,SystemResetWarning,0825.8,5.00,000.00,028.5,027.4,000.0,036.9,030.3,18.3,0000.0,0017.00,0005.94,0004.58
2023-09-29 06:37:00,SystemResetWarning,0825.8,5.00,000.00,028.5,027.5,000.0,036.9,030.4,18.5,0000.0,0017.59,0005.96,0004.58
2023-09-29 06:38:00,SystemResetWarning,0825.9,5.00,000.00,028.6,027.5,000.0,036.9,030.4,18.3,0000.0,0018.04,0006.01,0004.58
2023-09-29 06:39:00,SystemResetWarning,0825.9,5.00,000.00,028.6,027.6,000.0,037.0,030.4,18.3,0000.0,0018.46,0006.06,0004.59
2023-09-29 06:40:00,SystemResetWarning,0825.9,4.98,000.00,028.6,026.6,000.0,037.0,030.4,18.7,0000.0,0018.68,0006.06,0004.61
2023-09-29 06:41:00,SystemResetWarning,0825.9,5.01,000.00,028.6,024.8,000.0,036.9,030.2,18.6,0000.0,0018.39,0006.04,0004.62
2023-09-29 06:42:00,SystemResetWarning,0825.9,5.01,000.00,028.5,024.5,000.0,036.9,030.0,18.5,0000.0,0018.07,0006.02,0004.63
2023-09-29 06:43:00,SystemResetWarning,0825.9,5.00,000.00,028.4,024.7,000.0,036.8,029.9,18.6,0000.0,0017.65,0005.99,0004.64
2023-09-29 06:44:00,SystemResetWarning,0825.9,5.00,000.00,028.3,025.1,000.0,036.9,029.8,18.8,0000.0,0017.61,0006.04,0004.65
2023-09-29 06:45:00,SystemResetWarning,0825.9,4.99,000.00,028.3,025.5,000.0,036.8,029.9,18.6,0000.0,0017.27,0006.09,0004.65
2023-09-29 06:46:00,SystemResetWarning,0825.9,5.00,000.00,028.3,025.8,000.0,036.8,029.9,18.6,0000.0,0016.51,0006.15,0004.67
2023-09-29 06:47:00,SystemResetWarning,0825.9,5.01,000.00,028.3,026.1,000.0,036.8,030.0,18.6,0000.0,0016.48,0006.19,0004.67
2023-09-29 06:48:00,SystemResetWarning,0825.9,5.00,000.00,028.3,026.3,000.0,036.8,030.0,18.6,0000.0,0016.79,0006.19,0004.67
2023-09-29 06:49:00,SystemResetWarning,0826.0,5.00,000.00,028.3,026.6,000.0,036.8,030.0,18.6,0000.0,0017.43,0006.16,0004.69
2023-09-29 06:50:00,SystemResetWarning,0826.0,5.00,000.00,028.3,026.7,000.0,036.8,030.1,18.4,0000.0,0017.62,0006.14,0004.69
2023-09-29 06:51:00,SystemResetWarning,0826.0,5.00,000.00,028.3,026.9,000.0,036.8,030.1,18.4,0000.0,0017.38,0006.20,0004.68
2023-09-29 06:52:00,SystemResetWarning,0826.0,5.00,000.00,028.4,027.0,000.0,036.9,030.2,18.5,0000.0,0017.96,0006.31,0004.68
2023-09-29 06:53:00,SystemResetWarning,0826.0,5.01,000.00,028.4,027.1,000.0,036.9,030.2,18.7,0000.0,0018.18,0006.37,0004.70
2023-09-29 06:54:00,SystemResetWarning,0826.0,5.00,000.00,028.4,027.2,000.0,036.9,030.2,18.8,0000.0,0018.26,0006.40,0004.69
2023-09-29 06:55:00,SystemResetWarning,0826.0,5.00,000.00,028.5,027.3,000.0,036.9,030.3,18.9,0000.0,0018.18,0006.42,0004.68
2023-09-29 06:56:00,SystemResetWarning,0826.1,5.00,000.00,028.5,027.4,000.0,036.9,030.3,18.8,0000.0,0017.92,0006.45,0004.67
2023-09-29 06:57:00,SystemResetWarning,0826.1,5.00,000.00,028.5,027.4,000.0,036.9,030.3,18.8,0000.0,0017.79,0006.48,0004.67
2023-09-29 06:58:00,SystemResetWarning,0826.2,5.00,000.00,028.6,027.5,000.0,037.0,030.4,18.8,0000.0,0017.94,0006.47,0004.67
2023-09-29 06:59:00,SystemResetWarning,0826.2,5.00,000.00,028.6,027.5,000.0,037.0,030.4,19.0,0000.0,0017.52,0006.50,0004.68
